This is the latest recevied weather packets stored in our database for station/object KE4EST. If no packets are shown the sender has not sent any weather packets the latest 10 day(s).
| Time | Temp. | Humidity | Pressure | Rain* | Wind** | Luminosity | Snow |
|---|---|---|---|---|---|---|---|
| 1777638671 | 7.78° C | 96% | 1014.8 hPa | 0 mm | - | 28 W/m² | - |
| 1777638368 | 7.78° C | 98% | 1014.8 hPa | 0 mm | - | 28 W/m² | - |
| 1777638064 | 7.78° C | 98% | 1014.7 hPa | 0 mm | - | 24 W/m² | - |
| 1777637761 | 7.78° C | 99% | 1014.6 hPa | 0 mm | - | 31 W/m² | - |
| 1777637458 | 7.22° C | 99% | 1014.4 hPa | 0 mm | - | 28 W/m² | - |
| 1777637155 | 7.22° C | 99% | 1014.1 hPa | 0 mm | - | 21 W/m² | - |
| 1777636852 | 6.67° C | 98% | 1014.3 hPa | 0 mm | - | 19 W/m² | - |
| 1777636547 | 6.67° C | 98% | 1014.4 hPa | 0 mm | - | 18 W/m² | - |
| 1777636244 | 6.67° C | 98% | 1014.2 hPa | 0 mm | - | 16 W/m² | - |
| 1777635943 | 6.67° C | 98% | 1014.3 hPa | 0 mm | - | 16 W/m² | - |
| 1777635640 | 6.67° C | 98% | 1014.2 hPa | 0 mm | - | 18 W/m² | - |
| 1777635336 | 6.67° C | 98% | 1014.1 hPa | 0 mm | - | 18 W/m² | - |
| 1777635033 | 6.67° C | 98% | 1014.1 hPa | 0 mm | - | 13 W/m² | - |
| 1777634729 | 6.67° C | 98% | 1014.1 hPa | 0 mm | - | 11 W/m² | - |
| 1777634427 | 6.67° C | 98% | 1014.4 hPa | 0 mm | - | 10 W/m² | - |
| 1777634124 | 6.67° C | 98% | 1014.2 hPa | 0 mm | - | 8 W/m² | - |
| 1777633821 | 6.67° C | 98% | 1014.4 hPa | 0 mm | - | 8 W/m² | - |
| 1777633518 | 6.67° C | 98% | 1013.8 hPa | 0 mm | - | 7 W/m² | - |
| 1777633216 | 6.67° C | 98% | 1014.2 hPa | 0 mm | - | 5 W/m² | - |
| 1777632913 | 6.67° C | 98% | 1014.2 hPa | 0 mm | - | 3 W/m² | - |
| 1777632609 | 6.67° C | 98% | 1013.9 hPa | 0 mm | - | 2 W/m² | - |
| 1777632306 | 6.67° C | 98% | 1014.1 hPa | 0 mm | - | 1 W/m² | - |
| 1777632003 | 6.67° C | 97% | 1013.7 hPa | 0 mm | - | 1 W/m² | - |
| 1777631701 | 6.67° C | 97% | 1013.8 hPa | 0 mm | - | 0 W/m² | - |
| 1777631398 | 6.67° C | 97% | 1013.9 hPa | 0 mm | - | 0 W/m² | - |
* Rain latest hour (hover to see other rain measurements)
** Current wind speed in m/s (hover to see current wind gust speed)